This is the latest recevied weather packets stored in our database for station/object KS5S. If no packets are shown the sender has not sent any weather packets the latest 10 day(s).
| Time | Temp. | Humidity | Pressure | Rain* | Wind** | Luminosity | Snow |
|---|---|---|---|---|---|---|---|
| 1778001543 | 28.33° C | 73% | 1003.5 hPa | 0 mm | - | 471 W/m² | - |
| 1778001240 | 27.78° C | 73% | 1003.4 hPa | 0 mm | - | 522 W/m² | - |
| 1778000937 | 28.33° C | 73% | 1003.2 hPa | 0 mm | - | 704 W/m² | - |
| 1778000634 | 27.78° C | 74% | 1003.4 hPa | 0 mm | - | 718 W/m² | - |
| 1778000329 | 27.78° C | 75% | 1003.2 hPa | 0 mm | - | 563 W/m² | - |
| 1778000025 | 27.22° C | 75% | 1003.4 hPa | 0 mm | - | 557 W/m² | - |
| 1777999720 | 27.22° C | 76% | 1003.2 hPa | 0 mm | - | 530 W/m² | - |
| 1777999417 | 27.22° C | 76% | 1003.3 hPa | 0 mm | - | 498 W/m² | - |
| 1777999116 | 27.22° C | 76% | 1003.3 hPa | 0 mm | - | 465 W/m² | - |
| 1777998814 | 27.22° C | 76% | 1003.3 hPa | 0 mm | - | 507 W/m² | - |
| 1777998513 | 27.22° C | 76% | 1003.2 hPa | 0 mm | - | 432 W/m² | - |
| 1777998208 | 27.22° C | 76% | 1003.7 hPa | 0 mm | - | 518 W/m² | - |
| 1777997905 | 27.22° C | 77% | 1003.7 hPa | 0 mm | - | 542 W/m² | - |
| 1777997603 | 26.67° C | 77% | 1003.7 hPa | 0 mm | - | 578 W/m² | - |
| 1777997300 | 26.67° C | 77% | 1003.5 hPa | 0 mm | - | 485 W/m² | - |
| 1777996998 | 26.67° C | 78% | 1003.4 hPa | 0 mm | - | 490 W/m² | - |
| 1777996694 | 26.11° C | 77% | 1003.2 hPa | 0 mm | - | 457 W/m² | - |
| 1777996389 | 26.11° C | 78% | 1003.1 hPa | 0 mm | - | 585 W/m² | - |
| 1777996086 | 26.67° C | 78% | 1003.3 hPa | 0 mm | - | 469 W/m² | - |
| 1777995783 | 26.11° C | 78% | 1003.3 hPa | 0 mm | - | 550 W/m² | - |
| 1777995479 | 26.11° C | 79% | 1003.3 hPa | 0 mm | - | 534 W/m² | - |
| 1777995176 | 26.11° C | 79% | 1003.5 hPa | 0 mm | - | 501 W/m² | - |
| 1777994874 | 26.11° C | 80% | 1003.5 hPa | 0 mm | - | 582 W/m² | - |
| 1777994570 | 26.11° C | 80% | 1003.3 hPa | 0 mm | - | 676 W/m² | - |
| 1777994264 | 25.56° C | 81% | 1003.4 hPa | 0 mm | - | 594 W/m² | - |
* Rain latest hour (hover to see other rain measurements)
** Current wind speed in m/s (hover to see current wind gust speed)